This demonstration page uses our WeatherBlox Daily Observations layout. Learn more.

Left ArrowRight Arrow

41.12389, -100.76542

Hourly Observations for September 11, 2017

Temp ( °F °C ) Dew Point ( °F °C ) Humidity (%) Winds ( mph kmh ) Pressure ( in mb ) Visibility ( mi km ) Precip ( " mm )
12:53 am 00:53 Clear 71 21.7 55 12.8 57 57 S 13 20 30.03 1017 10 16 0.00 0.00
1:53 am 01:53 Clear 69 20.6 54 12.2 59 59 S 10 17 30.02 1017 10 16 0.00 0.00
2:53 am 02:53 Clear 68 20 54 12.2 61 61 S 8 13 30.02 1017 10 16 0.00 0.00
3:53 am 03:53 Clear 67 19.4 54 12.2 63 63 VRB 5 7 30.02 1017 10 16 0.00 0.00
4:53 am 04:53 Clear 59 15 54 12.2 83 83 E 6 9 30.03 1017 10 16 0.00 0.00
5:53 am 05:53 Clear 57 13.9 53 11.7 87 87 E 5 7 30.04 1017 10 16 0.00 0.00
6:53 am 06:53 Clear 56 13.3 53 11.7 90 90 ESE 7 11 30.04 1017 10 16 0.00 0.00
7:53 am 07:53 Sunny 57 13.9 53 11.7 87 87 E 6 9 30.07 1018 10 16 0.00 0.00
8:53 am 08:53 Sunny 63 17.2 55 12.8 76 76 Calm 30.09 1019 10 16 0.00 0.00
9:53 am 09:53 Sunny 67 19.4 56 13.3 68 68 S 3 6 30.09 1019 10 16 0.00 0.00
10:53 am 10:53 Sunny 72 22.2 57 13.9 59 59 Calm 30.10 1019 10 16 0.00 0.00
11:53 am 11:53 Sunny 76 24.4 59 15 56 56 SSE 3 6 30.08 1019 10 16 0.00 0.00
12:53 pm 12:53 Sunny 81 27.2 59 15 47 47 SE 6 9 30.06 1018 10 16 0.00 0.00
1:53 pm 13:53 Sunny 85 29.4 61 16.1 45 45 E 6 9 30.04 1017 10 16 0.00 0.00
2:53 pm 14:53 Sunny 89 31.7 62 16.7 41 41 ESE 8 13 30.02 1017 10 16 0.00 0.00
3:53 pm 15:53 Sunny 92 33.3 58 14.4 32 32 SSE 8 13 30.00 1016 10 16 0.00 0.00
4:53 pm 16:53 Sunny 92 33.3 59 15 33 33 ESE 13 20 29.99 1016 10 16 0.00 0.00
5:53 pm 17:53 Sunny 89 31.7 61 16.1 39 39 ESE 13 20 29.98 1015 10 16 0.00 0.00
6:53 pm 18:53 Sunny 84 28.9 64 17.8 51 51 ESE 9 15 29.99 1016 10 16 0.00 0.00
7:53 pm 19:53 Sunny 76 24.4 64 17.8 67 67 E 9 15 30.01 1016 10 16 0.00 0.00
8:53 pm 20:53 Clear 70 21.1 63 17.2 79 79 ESE 8 13 30.03 1017 10 16 0.00 0.00
9:53 pm 21:53 Clear 68 20 63 17.2 84 84 E 8 13 30.04 1017 10 16 0.00 0.00
10:53 pm 22:53 Clear 66 18.9 62 16.7 87 87 E 9 15 30.04 1017 10 16 0.00 0.00
11:53 pm 23:53 Clear 66 18.9 60 15.6 81 81 ESE 8 13 30.03 1017 10 16 0.00 0.00

Powered by AerisWeather